Location: Emory University Observatory
(33.7903°N, 84.3267°W)
Time: 01:44:16
(UTC-05:00)

Vanguard 1 - Visible Passes

Search period start: 20 January 2018 00:00
Search period end: 30 January 2018 00:00
Orbit: 649 x 3834 km, 34.3° (Epoch: 19 January)

Date Brightness Start Highest point End Pass type
(mag) Time Alt. Az. Time Alt. Az. Time Alt. Az.
20 Jan 12.9 02:32:51 36° E 02:32:51 36° E 02:42:32 10° E visible
20 Jan 11.9 04:45:34 61° W 04:49:10 75° SSW 05:11:18 10° ESE visible
20 Jan 13.2 06:58:35 10° W 07:14:32 43° SW 07:35:34 10° SSE visible
21 Jan 12.6 02:52:44 44° E 02:52:44 44° E 03:04:33 10° E visible
21 Jan 12.1 05:05:28 49° W 05:10:37 66° SSW 05:32:39 10° SE visible
22 Jan 12.4 03:12:39 53° ESE 03:12:39 53° ESE 03:26:31 10° ESE visible
22 Jan 12.3 05:25:22 39° W 05:32:03 57° SSW 05:53:40 10° SE visible
23 Jan 12.2 03:32:35 61° SE 03:32:35 61° SE 03:48:19 10° ESE visible
23 Jan 12.5 05:45:18 30° W 05:53:26 48° SSW 06:14:18 10° SE visible
24 Jan 13.6 01:39:50 14° E 01:39:50 14° E 01:41:41 10° E visible
24 Jan 12.0 03:52:33 65° SSE 03:52:33 65° SSE 04:09:55 10° ESE visible
24 Jan 12.7 06:05:17 22° W 06:14:51 39° SSW 06:34:31 10° SSE visible
25 Jan 13.4 01:59:49 19° E 01:59:49 19° E 02:03:36 10° E visible
25 Jan 12.0 04:12:32 62° S 04:12:32 62° S 04:31:14 10° SE visible
25 Jan 13.0 06:25:16 15° W 06:36:15 31° SW 06:54:10 10° SSE visible
26 Jan 13.2 02:19:49 24° ESE 02:19:49 24° ESE 02:25:26 10° ESE visible
26 Jan 12.1 04:32:33 52° SSW 04:33:05 53° SSW 04:52:13 10° SE visible
26 Jan 13.2 06:45:54 10° W 06:57:40 24° SW 07:13:04 10° S visible
27 Jan 13.0 02:39:51 29° ESE 02:39:51 29° ESE 02:47:09 10° ESE visible
27 Jan 12.3 04:52:34 42° SW 04:54:27 43° SSW 05:12:49 10° SE visible
27 Jan 13.4 07:09:38 10° WSW 07:19:09 17° SW 07:30:42 10° S visible
27 Jan 11.5 19:49:07 10° SSE 19:49:20 10° SSE 19:49:20 10° SSE visible
28 Jan 12.8 02:59:54 33° SE 02:59:54 33° SE 03:08:39 10° ESE visible
28 Jan 12.5 05:12:38 32° SW 05:15:51 35° SSW 05:32:55 10° SSE visible
28 Jan 11.3 20:08:01 10° SSW 20:09:24 15° S 20:09:24 15° S visible
29 Jan 12.7 03:19:57 36° SE 03:19:57 36° SE 03:29:53 10° SE visible
29 Jan 12.8 05:32:41 23° WSW 05:37:18 27° SSW 05:52:25 10° SSE visible
29 Jan 11.3 20:28:03 10° SSW 20:29:28 18° SSW 20:29:28 18° SSW visible
